Weather History for Millinocket, ME

Change the Weather History Date:

Thursday, February 20, 2014

  Actual Average Record
Temperature  
Mean Temperature 32 °F 20 °F  
Max Temperature 40 °F 30 °F 56 °F (1981)
Min Temperature 23 °F 10 °F -24 °F (1967)
Degree Days  
Heating Degree Days 33 45  
Month to date heating degree days 993 960  
Since 1 July heating degree days 5671 5706  
Cooling Degree Days 0 0  
Month to date cooling degree days 0 0  
Year to date cooling degree days 0 0  
Moisture  
Dew Point 25 °F    
Average Humidity 72    
Maximum Humidity 92    
Minimum Humidity 52    
Precipitation  
Precipitation 0.01 in 0.09 in 1.09 in (1972)
Month to date precipitation 1.29 1.41  
Year to date precipitation 4.87 4.34  
Sea Level Pressure  
Sea Level Pressure 29.93 in    
Wind  
Wind Speed 8 mph (WNW)    
Max Wind Speed 23 mph    
Max Gust Speed 30 mph    
Visibility 8 miles    
Events Rain , Snow    
T = Trace of Precipitation, MM = Missing Value Source: NWS Daily Summary

Daily Weather History Graph

Daily Weather History Graph

Search for Another Location

Airport:

Trip Planner

Search our weather history database for the weather conditions in past years. The results will help you decide how hot, cold, wet, or windy it might be!

Date:

Astronomy

Feb. 20, 2014 Rise Set
Actual Time 6:28 AM EST 5:08 PM EST
Civil Twilight 5:58 AM EST 5:39 PM EST
Nautical Twilight 5:24 AM EST 6:13 PM EST
Astronomical Twilight 4:49 AM EST 6:48 PM EST
Moon 11:19 PM EST (2/20) 8:51 AM EST (2/20)
Length of Visible Light 11h 40m
Length of Day
10h 40m
Waning Gibbous, 71% of the Moon is Illuminated
Feb 20
Waning Gibbous
Feb 22
Last Quarter
Mar 1
New
Mar 8
First Quarter
Mar 16
Full

Hourly Weather History & Observations

Time (EST) Temp. Windchill Dew Point Humidity Pressure Visibility Wind Dir Wind Speed Gust Speed Precip Events Conditions
12:00 AM 30.0 °F 25.2 °F 28.0 °F 92% 29.75 in 3.0 mi NW 4.6 mph - 0.00 in Snow Light Snow
12:34 AM 30.0 °F 26.5 °F 28.0 °F 92% 29.74 in 2.0 mi NW 3.5 mph - 0.00 in Snow Light Snow
12:42 AM 30.0 °F - 28.0 °F 92% 29.74 in 1.2 mi Calm Calm - 0.00 in Snow Light Snow
12:53 AM 30.0 °F 26.5 °F 28.0 °F 92% 29.77 in 1.5 mi West 3.5 mph - 0.01 in Snow Light Snow
1:05 AM 30.0 °F - 28.0 °F 92% 29.74 in 2.5 mi Calm Calm - 0.00 in Snow Light Snow
1:09 AM 30.0 °F - 28.0 °F 92% 29.74 in 3.0 mi Calm Calm - 0.00 in Snow Light Snow
1:53 AM 30.0 °F 26.5 °F 28.0 °F 92% 29.78 in 5.0 mi West 3.5 mph - 0.00 in Snow Light Snow
2:53 AM 28.0 °F - 26.1 °F 92% 29.78 in 10.0 mi Calm Calm - 0.00 in   Overcast
3:53 AM 30.9 °F 22.2 °F 27.0 °F 85% 29.80 in 10.0 mi WNW 10.4 mph - 0.00 in   Overcast
4:32 AM 30.9 °F 25.2 °F 27.0 °F 85% 29.77 in 10.0 mi West 5.8 mph - 0.00 in   Overcast
4:53 AM 32.0 °F 27.5 °F 28.0 °F 85% 29.81 in 10.0 mi West 4.6 mph - 0.00 in   Overcast
5:16 AM 32.0 °F 21.6 °F 27.0 °F 82% 29.79 in 10.0 mi WNW 15.0 mph - N/A   Scattered Clouds
5:44 AM 32.0 °F 24.2 °F 27.0 °F 82% 29.81 in 10.0 mi NW 9.2 mph 17.3 mph N/A   Mostly Cloudy
5:51 AM 32.0 °F 22.5 °F 26.6 °F 80% 29.81 in 10.0 mi WNW 12.7 mph 19.6 mph N/A   Scattered Clouds
5:53 AM 32.0 °F 23.0 °F 26.1 °F 79% 29.85 in 10.0 mi NW 11.5 mph 19.6 mph N/A   Scattered Clouds
6:53 AM 33.1 °F 24.4 °F 25.0 °F 72% 29.87 in 9.0 mi WNW 11.5 mph 27.6 mph N/A   Scattered Clouds
7:40 AM 34.0 °F 25.0 °F 27.0 °F 75% 29.89 in 10.0 mi WNW 12.7 mph 19.6 mph N/A   Overcast
7:53 AM 34.0 °F 27.2 °F 26.1 °F 73% 29.93 in 10.0 mi West 8.1 mph - N/A   Overcast
8:53 AM 34.0 °F 23.4 °F 25.0 °F 70% 29.93 in 9.0 mi NW 17.3 mph 29.9 mph 0.00 in   Scattered Clouds
9:38 AM 36.0 °F 27.1 °F 25.0 °F 64% 29.92 in 1.8 mi WNW 13.8 mph 26.5 mph 0.00 in   Haze
9:53 AM 36.0 °F 26.0 °F 25.0 °F 64% 29.96 in 10.0 mi WNW 17.3 mph 28.8 mph 0.00 in   Partly Cloudy
10:53 AM 37.0 °F 28.9 °F 25.0 °F 62% 29.97 in 10.0 mi WNW 12.7 mph 25.3 mph 0.00 in   Mostly Cloudy
11:53 AM 37.9 °F 29.6 °F 25.0 °F 60% 29.98 in 10.0 mi WNW 13.8 mph 23.0 mph N/A   Overcast
12:53 PM 37.9 °F 32.1 °F 24.1 °F 57% 29.99 in 10.0 mi WNW 8.1 mph 21.9 mph 0.00 in Rain Light Rain
1:53 PM 39.0 °F 31.8 °F 23.0 °F 53% 30.02 in 10.0 mi WNW 11.5 mph 20.7 mph 0.00 in   Mostly Cloudy
2:53 PM 37.9 °F 29.2 °F 21.0 °F 51% 30.06 in 10.0 mi West 15.0 mph 23.0 mph N/A   Overcast
3:53 PM 37.0 °F 29.8 °F 21.0 °F 52% 30.09 in 10.0 mi WNW 10.4 mph 21.9 mph N/A   Overcast
4:53 PM 35.1 °F 27.4 °F 19.9 °F 54% 30.11 in 10.0 mi WNW 10.4 mph 23.0 mph N/A   Clear
5:53 PM 33.1 °F 26.9 °F 19.9 °F 59% 30.15 in 10.0 mi West 6.9 mph - N/A   Clear
6:53 PM 32.0 °F 25.6 °F 19.9 °F 61% 30.16 in 10.0 mi West 6.9 mph - N/A   Clear
7:53 PM 28.0 °F 24.2 °F 19.9 °F 72% 30.18 in 10.0 mi SSW 3.5 mph - N/A   Clear
8:53 PM 27.0 °F 21.6 °F 19.0 °F 72% 30.19 in 10.0 mi WNW 4.6 mph - N/A   Clear
9:53 PM 28.0 °F - 19.9 °F 72% 30.19 in 10.0 mi Calm Calm - N/A   Clear
10:53 PM 28.0 °F 24.2 °F 18.0 °F 66% 30.21 in 10.0 mi West 3.5 mph - N/A   Clear
11:53 PM 24.1 °F - 18.0 °F 77% 30.22 in 10.0 mi Calm Calm - N/A   Clear